Regional Weather Roundup
Issued by NWS Jackson, KY

Home | Current Version | Previous Version | Graphics & Text | Print | Product List | Glossary On
Versions: 1 2 3 4 5 6 7 8 9 10 11 12 13 14 15 16 17 18 19 20 21 22 23 24 25 26 27 28 29 30 31 32 33 34 35 36 37 38 39 40 41 42 43 44 45 46 47 48 49 50
000
ASUS43 KJKL 270510
RWRJKL

EAST KENTUCKY HOURLY WEATHER ROUNDUP
NATIONAL WEATHER SERVICE JACKSON KY
100 AM EDT THU AUG 27 2015

NOTE: "FAIR" INDICATES FEW OR NO CLOUDS BELOW 12,000 FEET WITH
NO SIGNIFICANT WEATHER AND/OR OBSTRUCTIONS TO VISIBILITY.

* THESE REPORTS ARE NOT UNDER NWS QUALITY CONTROL AND MAY NOT
  REPORT WEATHER SUCH AS PRECIPITATION AND FOG.

KYZ079-080-083-085-087-088-110-112-115-119-120-270600
...EASTERN KENTUCKY...

CITY           SKY/WX    TMP DP  RH WIND       PRES   REMARKS
JACKSON        CLEAR     60  54  80 VRB3      30.16S
LONDON         CLEAR     60  53  77 CALM      30.14F
SOMERSET*      CLEAR     59  54  82 CALM      30.15S
MONTICELLO*    CLEAR     54  54 100 CALM      30.16S
WILLIAMSBURG*  CLEAR     55  55 100 CALM      30.14
MIDDLESBORO*   PTCLDY    57  57  98 CALM      30.14F
HARLAN APT*      N/A     55  55 100 MISG      30.15
HAZARD APT*    CLEAR     57  57 100 CALM      30.15
BLACK MTN*       N/A     54  54 100 CALM        N/A
PIKEVILLE APT* PTCLDY    59  57  94 N5        30.16S
BIG SANDY*     PTCLDY    59  57  92 NE3       30.16S
MOREHEAD APT*  PTCLDY    59  55  88 CALM      30.17S
$$

KYZ035-036-041-042-044-050-067-078-099-270600
...CENTRAL KENTUCKY...

CITY           SKY/WX    TMP DP  RH WIND       PRES   REMARKS
MT STERLING*   CLEAR     54  54 100 CALM      30.17S
FLEMING/MASON* CLEAR     57  55  94 E3        30.17S
DANVILLE*      CLEAR     54  54 100 CALM      30.15F
RICHMOND*      CLEAR     55  52  88 SE3       30.15R
LEXINGTON      CLEAR     62  54  74 E3        30.15R
FRANKFORT      CLEAR     59  54  83 CALM      30.13S
$$

KYZ091>093-OHZ055-061-077-WVZ005-015-034-035-042-270600
...SOUTHERN OHIO/WEST VIRGINIA...

CITY           SKY/WX    TMP DP  RH WIND       PRES   REMARKS
COVINGTON      CLOUDY    66  57  72 E5        30.14S
COLUMBUS       CLOUDY    63  55  75 CALM      30.15S
DAYTON         CLOUDY    62  57  83 CALM      30.17R
WILMINGTON       N/A     55  53  93 E3        30.16S
HUNTINGTON     CLEAR     57  55  93 CALM      30.15S
CHARLESTON     CLOUDY    62  59  90 CALM      30.14F
PINEVILLE*     CLEAR     56  56 100 MISG      30.21S
BECKLEY        CLEAR     53  50  89 SE5       30.18F
BLUEFIELD      CLEAR     57  50  77 CALM      30.19F
$$

VAZ002-007-008-TNZ017-027-036-066-071-270600
...SOUTHWEST VIRGINIA/EAST TENNESSEE...

CITY           SKY/WX    TMP DP  RH WIND       PRES   REMARKS
WISE*          CLEAR     57  55  94 CALM      30.19F
JONESVILLE*    CLEAR     55  55 100 CALM      30.16F
ABINGDON*      PTCLDY    60  51  70 E5        30.16S
BRISTOL        PTCLDY    59  54  83 CALM      30.13F
KNOXVILLE      PTCLDY    66  54  65 NE9       30.08F
OAK RIDGE      CLEAR     63  56  78 CALM      30.12S
CROSSVILLE     CLEAR     60  54  80 N5        30.14S
NASHVILLE      CLEAR     66  56  70 N6        30.11R
$$

...KEY TO REMARKS...
VSB - VISIBILITY IN MILES
WCI - WIND CHILL INDEX
HX  - HEAT INDEX

$$


USA.gov is the U.S. government's official web portal to all federal, state and local government web resources and services.